Powrót do katalogu

IUS R/B(1)

AktywnyHEO
NORAD 20843·ROCKET BODY·🇺🇸 United States

Wystrzelony Oct 6, 1990 z Cape Canaveral Space Force Station

Loading…

Następne Przeloty (najbliższe 24 godziny)

TLE

ŚwieżeSource: Space-Track

Epoka: Sep 14, 2026, 09:23 UTC

1 20843U 90090C   26257.39123279  .00000391  00000-0  39104-3 0  9996
2 20843  28.5304  11.8824 6672913 243.6203  35.3770  3.04297742368212

Śledź IUS R/B(1) w czasie rzeczywistym z AllMySat

Download on the App Store